Theta_e
316 317 318 319 319 319 319 320 321 323 327 327 324 322 318 316 313 313 314 313 311 310 308 306 306 305 304 303 304 303 302 302 303 302 301 302 305 305 305 306 306 307 309
312 315 316 317 318 320 324 322 321 319 319 319 318 318 317 316 312 310 310 309 308 307 307 305 304 303 302 301 301 300 300 300 302 301 301 297 301 302 304 305 306 305 308
311 314 316 319 323 323 320 317 316 315 314 313 313 313 313 310 308 307 305 305 306 305 305 304 303 302 300 299 302 303 302 300 303 304 302 298 297 299 305 306 305 304 305
312 315 321 322 321 319 318 316 314 312 312 311 310 310 309 304 303 302 302 302 303 303 304 304 303 301 301 301 303 305 303 302 300 302 304 304 303 297 295 303 303 305 306
312 321 321 319 318 316 313 311 310 309 309 309 309 309 301 301 300 299 298 298 300 301 302 303 302 303 303 302 303 303 303 303 301 301 301 301 301 302 298 296 300 303 304
320 320 319 316 313 311 309 308 307 306 306 306 308 302 298 297 296 296 296 297 297 300 301 302 303 303 303 303 303 304 303 303 302 302 301 300 299 299 299 298 298 298 301
318 317 313 309 308 306 306 306 304 303 305 306 301 298 297 297 295 295 295 296 297 298 300 301 302 303 304 303 303 302 302 302 301 301 301 302 301 302 300 299 298 297 300
312 309 307 307 305 305 304 304 302 304 305 299 297 297 297 296 295 295 295 296 295 299 303 303 302 302 302 303 303 302 302 302 301 301 301 301 302 302 301 299 298 295 297
307 306 306 305 304 302 302 303 302 301 298 297 298 296 296 296 295 295 295 296 298 303 303 302 301 302 303 303 303 302 302 302 302 301 302 301 302 302 302 302 301 297 293
304 303 303 303 301 302 301 301 299 298 298 297 296 296 296 296 296 295 296 297 300 302 302 302 302 303 303 303 303 302 303 302 303 303 303 302 303 303 303 302 302 301 299
302 302 302 303 301 301 301 300 298 297 296 296 295 295 295 296 296 296 297 298 299 301 301 302 302 302 303 304 303 303 304 304 304 305 305 304 305 303 302 303 302 301 301
302 301 302 302 301 300 298 297 297 297 296 295 295 294 295 295 295 296 297 299 299 302 301 301 302 302 303 303 303 303 305 304 304 304 305 305 307 304 303 303 302 302 303
301 301 302 300 300 298 297 296 296 296 296 296 295 295 295 295 295 296 297 299 299 300 301 301 301 301 302 301 302 304 304 304 304 305 304 305 306 305 303 303 302 303 304
302 301 301 300 299 298 298 297 296 296 295 295 295 295 295 295 295 296 297 298 298 296 299 301 302 302 301 300 300 303 304 304 304 304 304 305 307 307 307 304 303 304 304
303 301 299 297 297 296 296 296 295 295 294 295 295 295 296 296 296 296 296 296 294 294 296 300 301 301 301 299 300 302 303 303 303 303 303 304 309 311 309 307 305 305 304
302 300 299 298 297 297 295 295 295 294 294 295 295 295 296 296 296 297 295 292 291 292 293 296 298 300 300 300 300 301 302 303 302 301 302 302 304 305 308 308 309 307 304
301 300 299 298 297 297 295 294 294 294 294 294 295 296 296 297 297 294 292 290 290 290 291 294 294 294 296 299 298 300 301 302 302 301 301 301 302 302 303 307 307 307 307
302 301 300 297 297 296 294 294 294 294 294 294 294 295 296 297 295 291 289 289 289 289 290 293 292 291 293 297 297 298 299 301 301 301 300 299 299 300 301 302 303 304 305
301 298 298 298 297 295 295 294 293 293 293 294 294 296 296 296 294 290 288 288 288 288 289 290 290 290 291 295 296 296 296 299 300 301 300 299 298 298 298 301 300 302 303
299 298 299 298 295 295 295 293 293 293 293 295 296 297 296 295 293 289 289 288 287 289 290 290 289 293 289 294 295 295 296 298 298 299 299 299 297 296 297 299 298 298 300
300 300 299 297 296 296 294 293 292 292 294 296 296 296 295 293 292 288 288 289 289 289 289 288 288 289 290 291 295 295 296 295 296 296 296 297 296 295 295 296 296 296 299
300 300 296 295 296 295 294 292 292 294 296 295 294 293 294 295 292 288 287 288 288 288 287 287 288 290 292 296 295 295 295 297 296 295 295 295 294 294 294 296 295 295 298
300 299 295 294 294 294 294 292 293 295 295 294 292 292 294 294 294 289 287 287 287 287 287 286 286 290 294 295 295 295 294 296 295 296 296 294 294 294 294 295 295 296 296
299 298 297 296 294 295 296 294 295 296 292 291 291 291 292 292 292 291 289 287 286 287 287 286 285 291 293 294 293 294 294 295 295 295 294 295 294 294 294 294 294 295 294
299 298 296 294 294 295 296 295 296 294 291 290 290 290 291 290 290 289 289 288 287 288 287 286 285 290 291 292 292 292 292 292 293 293 293 292 291 291 291 291 292 293 293
298 297 296 296 295 296 296 296 296 296 292 290 290 289 289 288 289 287 288 291 291 291 291 290 289 291 292 292 291 292 292 291 291 289 287 286 288 290 289 289 290 291 292
Wind_Speed
15 15 14 11 7 6 7 5 8 6 5 4 4 4 4 3 4 4 7 6 5 5 4 3 4 5 5 5 6 4 6 7 5 7 7 6 11 10 7 4 4 7 7
9 11 5 5 6 7 9 10 10 9 7 4 3 3 3 3 4 4 5 6 6 6 7 5 4 5 4 6 5 5 6 4 4 5 10 6 5 3 5 7 5 7 5
18 10 7 7 9 11 10 11 11 11 9 7 4 4 4 3 3 3 2 4 7 6 6 5 4 5 4 4 6 6 7 8 6 6 5 5 3 8 6 5 8 5 8
11 8 12 11 13 12 11 12 12 12 10 7 7 10 4 3 3 3 4 5 6 7 7 6 6 6 4 6 7 8 8 8 9 7 6 9 9 5 6 3 10 10 8
12 14 15 16 14 13 12 11 12 12 10 11 10 6 4 2 2 3 6 6 7 7 7 7 7 7 6 7 10 11 10 8 8 8 7 8 8 10 9 10 9 9 8
15 17 17 17 15 12 12 10 12 11 10 11 9 6 6 3 4 6 5 5 4 6 6 8 8 9 9 9 10 11 11 10 10 9 9 8 7 6 6 6 9 13 8
16 15 17 16 15 12 10 10 10 10 10 8 6 5 5 7 6 5 4 6 6 5 7 8 9 9 10 10 10 10 11 10 10 11 9 8 9 8 8 9 10 9 6
13 16 15 14 13 13 15 8 9 9 6 5 4 6 7 2 2 3 4 4 4 6 9 9 8 11 10 10 10 8 8 10 9 12 11 9 9 8 8 8 7 9 6
14 16 15 15 14 8 12 6 6 4 5 5 5 5 3 5 5 7 5 4 5 7 10 10 10 11 11 11 11 8 10 10 10 10 11 9 9 8 7 7 7 6 6
13 14 13 12 11 9 7 9 5 4 4 4 4 3 4 4 4 5 6 7 7 8 10 11 11 12 11 12 11 9 10 11 8 8 10 10 8 7 6 6 6 5 7
11 12 11 10 10 8 5 6 2 2 3 5 4 4 5 5 6 6 6 6 6 8 9 10 11 12 12 12 11 11 11 12 11 10 9 11 9 5 4 5 5 6 5
14 13 13 9 9 8 4 4 5 5 3 2 3 5 6 5 6 6 7 7 7 8 8 9 10 11 12 12 11 12 12 12 11 12 10 10 7 6 5 4 6 6 5
10 8 8 9 7 7 6 2 4 6 4 4 5 6 6 6 7 7 7 7 7 9 9 7 8 10 11 11 11 10 11 12 12 12 11 10 9 7 4 5 5 5 5
10 7 4 5 6 7 4 3 4 6 5 4 5 6 7 7 7 7 7 6 7 7 8 6 6 8 9 10 11 10 10 11 11 12 12 11 10 11 6 5 5 5 5
7 6 5 4 7 4 3 3 4 5 3 5 5 7 7 7 7 7 7 6 7 6 6 5 5 7 7 8 11 10 9 9 11 11 11 11 18 20 17 4 5 6 6
9 8 8 8 5 5 4 3 4 5 4 5 6 6 6 6 6 6 7 7 7 7 6 6 6 7 6 16 20 14 8 9 9 11 12 11 16 16 18 18 15 12 6
10 8 5 5 6 3 4 4 4 4 4 5 5 6 6 6 6 6 7 8 8 6 6 6 7 8 8 16 19 19 6 7 8 9 10 10 9 13 10 10 12 12 15
12 9 7 5 3 2 4 5 4 4 5 5 6 6 6 6 6 7 7 7 5 7 5 6 7 6 7 16 18 17 7 6 6 7 9 9 11 13 12 9 8 7 7
8 6 7 3 3 4 5 1 3 3 4 6 7 7 5 5 4 6 7 5 5 6 5 5 7 7 8 16 18 11 6 6 6 6 7 10 10 16 17 10 10 8 9
8 7 6 3 4 4 3 1 4 5 5 6 7 7 5 4 2 3 5 3 3 4 5 6 6 10 8 14 17 15 5 7 6 7 7 14 12 16 17 10 9 9 8
11 8 7 4 5 4 2 3 3 5 6 6 7 6 5 3 1 2 2 4 5 6 7 7 7 7 7 9 15 15 6 5 4 5 7 7 15 13 16 13 10 8 8
8 8 6 4 3 3 3 1 4 6 6 6 6 6 6 3 2 1 2 4 5 6 6 6 7 6 8 11 14 13 12 13 6 6 6 7 13 13 14 12 15 14 10
6 4 6 5 3 2 1 1 4 5 5 5 7 6 6 4 1 2 1 0 3 3 4 4 5 6 6 7 15 13 13 12 6 6 8 10 11 11 9 14 15 11 8
5 4 5 3 1 2 4 3 6 4 4 5 7 6 6 6 3 2 3 2 2 2 3 4 4 6 5 6 6 7 7 10 8 9 6 8 8 8 9 9 9 7 7
9 7 6 4 4 3 4 5 5 3 5 5 6 6 4 5 4 3 4 4 5 4 2 3 3 4 5 6 7 5 5 5 6 7 4 5 7 9 8 7 7 6 7
6 5 5 4 4 3 5 5 4 2 4 5 5 5 5 5 3 3 5 7 9 7 8 9 6 3 6 8 9 8 10 11 10 4 3 4 4 6 9 8 7 5 8
Wind_Direction
198 200 203 194 122 105 98 103 99 59 70 68 95 72 78 77 48 44 46 41 32 23 20 357 356 355 1 335 318 300 307 314 301 304 300 287 272 263 269 296 298 286 284
209 205 184 97 80 86 82 76 78 72 62 65 67 89 107 85 82 52 38 26 16 357 354 344 344 344 319 311 301 296 303 291 289 293 295 309 306 10 320 308 298 293 302
206 179 116 101 94 89 92 88 80 75 65 54 55 52 50 40 21 18 12 352 352 343 335 326 305 285 280 280 278 276 282 303 298 271 278 309 289 335 264 300 283 303 296
209 124 122 109 107 99 91 83 78 74 63 51 61 54 18 38 5 342 334 330 333 330 321 301 295 285 282 287 305 311 301 300 295 290 262 265 280 294 300 250 299 285 282
143 132 123 113 104 100 95 89 85 75 66 63 63 48 64 52 337 328 346 347 330 308 304 314 309 307 314 312 308 303 295 287 282 279 283 277 274 265 260 285 289 295 292
103 112 110 104 95 90 85 78 77 70 65 65 49 57 63 16 18 5 345 324 298 301 312 313 318 317 308 306 306 301 294 291 283 279 276 271 273 276 276 276 275 288 296
105 101 101 99 91 77 64 86 71 65 60 51 50 57 54 34 15 325 313 324 317 309 315 319 322 312 315 310 308 303 296 291 285 283 279 273 270 266 271 275 271 277 294
78 88 86 82 80 94 83 15 64 64 44 65 61 41 38 10 312 299 305 293 282 301 314 319 308 311 302 306 303 297 295 291 285 282 275 272 268 259 257 260 276 287 285
70 73 66 61 67 53 80 57 46 47 59 57 45 33 9 9 334 317 297 285 297 325 327 320 317 316 319 316 312 307 301 294 286 278 275 271 270 260 252 252 257 268 292
77 76 70 71 77 43 12 70 26 42 42 53 41 30 354 326 318 309 323 322 323 323 324 326 328 327 325 324 322 311 304 299 295 288 284 279 272 264 249 249 253 249 260
97 96 91 94 80 63 6 22 8 44 58 44 13 342 331 328 313 305 306 307 313 320 324 329 332 332 333 332 327 322 316 314 315 312 305 295 281 266 250 243 251 253 246
133 137 136 133 114 119 68 19 354 340 12 17 347 322 313 315 311 317 317 313 308 315 312 322 337 336 332 333 334 333 332 335 332 330 325 322 321 274 253 245 254 255 252
139 125 121 122 141 118 105 46 299 285 317 3 343 318 323 326 330 326 317 315 314 315 315 314 342 334 330 333 332 336 340 341 339 338 335 329 324 314 261 240 249 253 257
150 152 126 100 111 88 97 208 255 276 305 358 340 328 338 334 319 307 313 324 314 312 313 315 321 329 326 335 335 335 344 349 347 348 347 339 351 347 309 256 252 258 266
151 131 135 148 91 97 199 211 251 277 321 4 347 341 325 319 311 318 325 317 324 316 305 317 329 328 331 342 344 333 331 341 344 350 353 353 3 10 18 346 302 290 288
143 148 152 119 124 162 205 214 265 290 2 2 347 337 326 320 320 336 337 340 329 332 343 1 350 336 331 340 345 350 326 335 347 351 349 353 4 356 2 12 21 25 357
146 148 128 120 147 187 210 236 259 328 350 345 329 329 325 322 338 346 350 344 337 339 356 13 2 342 333 345 344 346 336 338 348 359 360 356 359 358 345 351 4 14 11
156 145 135 151 154 181 264 270 309 355 354 323 321 323 306 324 351 355 352 345 344 349 340 349 351 340 333 344 343 341 340 348 351 1 5 359 358 357 354 352 351 351 352
114 124 131 152 156 201 242 295 8 345 341 336 322 306 309 331 358 2 350 344 348 352 349 335 349 349 333 341 348 356 351 336 344 0 3 18 5 349 360 8 3 358 8
116 136 124 156 162 235 243 171 9 343 331 338 311 299 327 357 339 357 351 333 345 336 339 346 348 343 331 339 352 2 342 357 356 2 9 9 358 357 9 16 1 5 348
138 154 129 179 208 170 138 37 327 315 324 317 299 323 343 352 184 12 359 3 9 7 359 351 334 333 337 329 349 355 2 348 338 4 1 3 355 3 11 13 13 355 329
145 128 126 162 172 155 138 311 310 308 328 305 326 332 342 339 125 102 1 10 23 14 354 348 345 331 333 344 351 355 4 3 11 10 0 356 353 3 8 12 0 359 358
127 124 142 159 163 208 127 314 287 320 333 323 343 331 345 358 55 219 234 4 12 19 344 347 336 334 341 348 349 352 358 3 8 7 358 350 360 7 10 7 4 5 9
151 155 151 149 196 241 252 274 300 328 325 344 331 334 350 347 9 282 232 202 248 305 320 334 332 328 343 350 341 350 353 359 8 357 353 352 356 8 6 7 4 4 6
168 158 165 169 223 226 276 284 301 341 350 343 326 344 339 332 349 315 242 226 242 199 241 272 250 308 333 331 310 309 351 348 337 328 337 354 9 6 3 2 360 356 358
157 141 149 169 203 217 265 296 331 329 353 325 338 332 324 325 332 326 323 239 239 274 250 254 242 292 274 310 324 329 330 325 343 342 332 329 343 354 351 349 346 351 351